Year,Month,Day,Hour,Minute,Value (Times are PST for temperature in C)
2016,03,30,07,37,6.10
2016,03,30,07,38,6.10
2016,03,30,07,39,6.10
2016,03,30,07,40,6.10
2016,03,30,07,41,6.10
2016,03,30,07,42,6.20
2016,03,30,07,43,6.20
2016,03,30,07,44,6.20
2016,03,30,07,45,6.20
2016,03,30,07,46,6.20
2016,03,30,07,47,6.20
2016,03,30,07,48,6.20
2016,03,30,07,49,6.20
2016,03,30,07,50,6.20
2016,03,30,07,51,6.20
2016,03,30,07,52,6.30
2016,03,30,07,53,6.30
2016,03,30,07,54,6.30
2016,03,30,07,55,6.30
2016,03,30,07,56,6.40
2016,03,30,07,57,6.40
2016,03,30,07,58,6.50
2016,03,30,07,59,6.50
2016,03,30,08,00,6.60
2016,03,30,08,01,6.60
2016,03,30,08,02,6.70
2016,03,30,08,03,6.70
2016,03,30,08,04,6.80
2016,03,30,08,05,6.80
2016,03,30,08,06,6.80
2016,03,30,08,07,6.90
2016,03,30,08,08,7.00
2016,03,30,08,09,7.00
2016,03,30,08,10,7.10
2016,03,30,08,11,7.20
2016,03,30,08,12,7.20
2016,03,30,08,13,7.30
2016,03,30,08,14,7.30
2016,03,30,08,15,7.40
2016,03,30,08,16,7.40
2016,03,30,08,17,7.50
2016,03,30,08,18,7.60
2016,03,30,08,19,7.60
2016,03,30,08,20,7.70
2016,03,30,08,21,7.80
2016,03,30,08,22,7.80
2016,03,30,08,23,7.80
2016,03,30,08,24,7.90
2016,03,30,08,25,7.90
2016,03,30,08,26,8.00
2016,03,30,08,27,8.00
2016,03,30,08,28,8.10
2016,03,30,08,29,8.20
2016,03,30,08,30,8.20
2016,03,30,08,31,8.30
2016,03,30,08,32,8.30
2016,03,30,08,33,8.40
2016,03,30,08,34,8.40
2016,03,30,08,35,8.50
2016,03,30,08,36,8.50
2016,03,30,08,37,8.60
2016,03,30,08,38,8.60
2016,03,30,08,39,8.60
2016,03,30,08,40,8.70
2016,03,30,08,41,8.70
2016,03,30,08,42,8.70
2016,03,30,08,43,8.80
2016,03,30,08,44,8.80
2016,03,30,08,45,8.80
2016,03,30,08,46,8.90
2016,03,30,08,47,8.90
2016,03,30,08,48,9.00
2016,03,30,08,49,9.00
2016,03,30,08,50,9.10
2016,03,30,08,51,9.10
2016,03,30,08,52,9.10
2016,03,30,08,53,9.10
2016,03,30,08,54,9.10
2016,03,30,08,55,9.10
2016,03,30,08,56,9.10
2016,03,30,08,57,9.10
2016,03,30,08,58,9.00
2016,03,30,08,59,9.00
2016,03,30,09,00,9.00
2016,03,30,09,01,9.10
2016,03,30,09,02,9.10
2016,03,30,09,03,9.10
2016,03,30,09,04,9.10
2016,03,30,09,05,9.10
2016,03,30,09,06,9.20
2016,03,30,09,07,9.20
2016,03,30,09,08,9.30
2016,03,30,09,09,9.40
2016,03,30,09,10,9.40
2016,03,30,09,11,9.50
2016,03,30,09,12,9.60
2016,03,30,09,13,9.70
2016,03,30,09,14,9.80
2016,03,30,09,15,9.90
2016,03,30,09,16,10.00
2016,03,30,09,17,10.00
2016,03,30,09,18,10.10
2016,03,30,09,19,10.10
2016,03,30,09,20,10.20
2016,03,30,09,21,10.30
2016,03,30,09,22,10.40
2016,03,30,09,23,10.50
2016,03,30,09,24,10.60
2016,03,30,09,25,10.70
2016,03,30,09,26,10.70
2016,03,30,09,27,10.70
2016,03,30,09,28,10.70
2016,03,30,09,29,10.70
2016,03,30,09,30,10.70
2016,03,30,09,31,10.70
2016,03,30,09,32,10.60
2016,03,30,09,33,10.60
2016,03,30,09,34,10.60
2016,03,30,09,35,10.60
2016,03,30,09,36,10.60
2016,03,30,09,37,10.60
2016,03,30,09,38,10.70
2016,03,30,09,39,10.80
2016,03,30,09,40,10.90
2016,03,30,09,41,11.00
2016,03,30,09,42,11.00
2016,03,30,09,43,11.10
2016,03,30,09,44,11.10
2016,03,30,09,45,11.20
2016,03,30,09,46,11.30
2016,03,30,09,47,11.30
2016,03,30,09,48,11.40
2016,03,30,09,49,11.50
2016,03,30,09,50,11.60
2016,03,30,09,51,11.70
2016,03,30,09,52,11.80
2016,03,30,09,53,11.80
2016,03,30,09,54,11.90
2016,03,30,09,55,12.00
2016,03,30,09,56,12.10
2016,03,30,09,57,12.20
2016,03,30,09,58,12.20
2016,03,30,09,59,12.20
2016,03,30,10,00,12.30
2016,03,30,10,01,12.30
2016,03,30,10,02,12.30
2016,03,30,10,03,12.40
2016,03,30,10,04,12.40
2016,03,30,10,05,12.40
2016,03,30,10,06,12.40
2016,03,30,10,07,12.50
2016,03,30,10,08,12.50
2016,03,30,10,09,12.60
2016,03,30,10,10,12.60
2016,03,30,10,11,12.70
2016,03,30,10,12,12.70
2016,03,30,10,13,12.80
2016,03,30,10,14,12.90
2016,03,30,10,15,13.00
2016,03,30,10,16,13.10
2016,03,30,10,17,13.20
2016,03,30,10,18,13.30
2016,03,30,10,19,13.40
2016,03,30,10,20,13.50
2016,03,30,10,21,13.60
2016,03,30,10,22,13.60
2016,03,30,10,23,13.60
2016,03,30,10,24,13.70
2016,03,30,10,25,13.70
2016,03,30,10,26,13.80
2016,03,30,10,27,13.90
2016,03,30,10,28,14.00
2016,03,30,10,29,14.20
2016,03,30,10,30,14.30
2016,03,30,10,31,14.40
2016,03,30,10,32,14.50
2016,03,30,10,33,14.60
2016,03,30,10,34,14.70
2016,03,30,10,35,14.80
2016,03,30,10,36,14.80
2016,03,30,10,37,14.90
2016,03,30,10,38,14.90
2016,03,30,10,39,14.90
2016,03,30,10,40,14.90
2016,03,30,10,41,14.90
2016,03,30,10,42,14.90
2016,03,30,10,43,14.80
2016,03,30,10,44,14.80
2016,03,30,10,45,14.80
2016,03,30,10,46,14.80
2016,03,30,10,47,14.80
2016,03,30,10,48,14.80
2016,03,30,10,49,14.90
2016,03,30,10,50,15.00
2016,03,30,10,51,15.20
2016,03,30,10,52,15.30
2016,03,30,10,53,15.30
2016,03,30,10,54,15.30
2016,03,30,10,55,15.30
2016,03,30,10,56,15.30
2016,03,30,10,57,15.30
2016,03,30,10,58,15.40
2016,03,30,10,59,15.40
2016,03,30,11,00,15.50
2016,03,30,11,01,15.60
2016,03,30,11,02,15.70
2016,03,30,11,03,15.80
2016,03,30,11,04,15.90
2016,03,30,11,05,16.00
2016,03,30,11,06,16.10
2016,03,30,11,07,16.20
2016,03,30,11,08,16.20
2016,03,30,11,09,16.30
2016,03,30,11,10,16.20
2016,03,30,11,11,16.10
2016,03,30,11,12,16.10
2016,03,30,11,13,15.90
2016,03,30,11,14,15.80
2016,03,30,11,15,15.60
2016,03,30,11,16,15.30
2016,03,30,11,17,15.10
2016,03,30,11,18,15.00
2016,03,30,11,19,14.90
2016,03,30,11,20,14.80
2016,03,30,11,21,14.80
2016,03,30,11,22,14.80
2016,03,30,11,23,14.80
2016,03,30,11,24,14.90
2016,03,30,11,25,15.00
2016,03,30,11,26,15.10
2016,03,30,11,27,15.20
2016,03,30,11,28,15.20
2016,03,30,11,29,15.30
2016,03,30,11,30,15.40
2016,03,30,11,31,15.50
2016,03,30,11,32,15.60
2016,03,30,11,33,15.70
2016,03,30,11,34,15.80
2016,03,30,11,35,16.00
2016,03,30,11,36,16.10
2016,03,30,11,37,16.20
2016,03,30,11,38,16.30
2016,03,30,11,39,16.40
2016,03,30,11,40,16.50
2016,03,30,11,41,16.60
2016,03,30,11,42,16.70
2016,03,30,11,43,16.80
2016,03,30,11,44,16.80
2016,03,30,11,45,16.80
2016,03,30,11,46,16.70
2016,03,30,11,47,16.60
2016,03,30,11,48,16.50
2016,03,30,11,49,16.40
2016,03,30,11,50,16.20
2016,03,30,11,51,16.10
2016,03,30,11,52,16.00
2016,03,30,11,53,15.90
2016,03,30,11,54,15.80
2016,03,30,11,55,15.80
2016,03,30,11,56,15.80
2016,03,30,11,57,15.80
2016,03,30,11,58,15.90
2016,03,30,11,59,16.00
2016,03,30,12,00,16.10
2016,03,30,12,01,16.20
2016,03,30,12,02,16.20
2016,03,30,12,03,16.30
2016,03,30,12,04,16.30
2016,03,30,12,05,16.30
2016,03,30,12,06,16.20
2016,03,30,12,07,16.20
2016,03,30,12,08,16.30
2016,03,30,12,09,16.30
2016,03,30,12,10,16.40
2016,03,30,12,11,16.40
2016,03,30,12,12,16.40
2016,03,30,12,13,16.40
2016,03,30,12,14,16.50
2016,03,30,12,15,16.60
2016,03,30,12,16,16.60
2016,03,30,12,17,16.70
2016,03,30,12,18,16.70
2016,03,30,12,19,16.80
2016,03,30,12,20,16.90
2016,03,30,12,21,17.00
2016,03,30,12,22,17.10
2016,03,30,12,23,17.20
2016,03,30,12,24,17.20
2016,03,30,12,25,17.20
2016,03,30,12,26,17.20
2016,03,30,12,27,17.20
2016,03,30,12,28,17.20
2016,03,30,12,29,17.10
2016,03,30,12,30,17.10
2016,03,30,12,31,17.10
2016,03,30,12,32,17.10
2016,03,30,12,33,17.10
2016,03,30,12,34,17.20
2016,03,30,12,35,17.20
2016,03,30,12,36,17.20
2016,03,30,12,37,17.30
2016,03,30,12,38,17.40
2016,03,30,12,39,17.50
2016,03,30,12,40,17.50
2016,03,30,12,41,17.50
2016,03,30,12,42,17.50
2016,03,30,12,43,17.60
2016,03,30,12,44,17.60
2016,03,30,12,45,17.60
2016,03,30,12,46,17.50
2016,03,30,12,47,17.50
2016,03,30,12,48,17.50
2016,03,30,12,49,17.40
2016,03,30,12,50,17.50
2016,03,30,12,51,17.50
2016,03,30,12,52,17.50
2016,03,30,12,53,17.50
2016,03,30,12,54,17.50
2016,03,30,12,55,17.40
2016,03,30,12,56,17.40
2016,03,30,12,57,17.50
2016,03,30,12,58,17.40
2016,03,30,12,59,17.40
2016,03,30,13,00,17.40
2016,03,30,13,01,17.30
2016,03,30,13,02,17.30
2016,03,30,13,03,17.30
2016,03,30,13,04,17.30
2016,03,30,13,05,17.40
2016,03,30,13,06,17.50
2016,03,30,13,07,17.60
2016,03,30,13,08,17.70
2016,03,30,13,09,17.90
2016,03,30,13,10,18.00
2016,03,30,13,11,18.10
2016,03,30,13,12,18.30
2016,03,30,13,13,18.30
2016,03,30,13,14,18.50
2016,03,30,13,15,18.50
2016,03,30,13,16,18.60
2016,03,30,13,17,18.60
2016,03,30,13,18,18.60
2016,03,30,13,19,18.60
2016,03,30,13,20,18.50
2016,03,30,13,21,18.50
2016,03,30,13,22,18.40
2016,03,30,13,23,18.40
2016,03,30,13,24,18.40
2016,03,30,13,25,18.40
2016,03,30,13,26,18.40
2016,03,30,13,27,18.40
2016,03,30,13,28,18.30
2016,03,30,13,29,18.30
2016,03,30,13,30,18.30
2016,03,30,13,31,18.30
2016,03,30,13,32,18.30
2016,03,30,13,33,18.40
2016,03,30,13,34,18.30
2016,03,30,13,35,18.30
2016,03,30,13,36,18.20
2016,03,30,13,37,18.20
2016,03,30,13,38,18.10
2016,03,30,13,39,18.10
2016,03,30,13,40,18.20
2016,03,30,13,41,18.30
2016,03,30,13,42,18.30
2016,03,30,13,43,18.30
2016,03,30,13,44,18.30
2016,03,30,13,45,18.40
2016,03,30,13,46,18.40
2016,03,30,13,47,18.40
2016,03,30,13,48,18.50
2016,03,30,13,49,18.50
2016,03,30,13,50,18.50
2016,03,30,13,51,18.50
2016,03,30,13,52,18.40
2016,03,30,13,53,18.40
2016,03,30,13,54,18.40
2016,03,30,13,55,18.40
2016,03,30,13,56,18.40
2016,03,30,13,57,18.50
2016,03,30,13,58,18.60
2016,03,30,13,59,18.70
2016,03,30,14,00,18.70
2016,03,30,14,01,18.70
2016,03,30,14,02,18.70
2016,03,30,14,03,18.70
2016,03,30,14,04,18.70
2016,03,30,14,05,18.80
2016,03,30,14,06,18.90
2016,03,30,14,07,19.00
2016,03,30,14,08,19.10
2016,03,30,14,09,19.20
2016,03,30,14,10,19.30
2016,03,30,14,11,19.40
2016,03,30,14,12,19.50
2016,03,30,14,13,19.60
2016,03,30,14,14,19.80
2016,03,30,14,15,19.90
2016,03,30,14,16,20.10
2016,03,30,14,17,20.20
2016,03,30,14,18,20.40
2016,03,30,14,19,20.40
2016,03,30,14,20,20.40
2016,03,30,14,21,20.40
2016,03,30,14,22,20.30
2016,03,30,14,23,20.10
2016,03,30,14,24,20.00
2016,03,30,14,25,19.80
2016,03,30,14,26,19.60
2016,03,30,14,27,19.40
2016,03,30,14,28,19.30
2016,03,30,14,29,19.30
2016,03,30,14,30,19.20
2016,03,30,14,31,19.20
2016,03,30,14,32,19.20
2016,03,30,14,33,19.20
2016,03,30,14,34,19.20
2016,03,30,14,35,19.20
2016,03,30,14,36,19.30
2016,03,30,14,37,19.40
2016,03,30,14,38,19.60
2016,03,30,14,39,19.60
2016,03,30,14,40,19.50
2016,03,30,14,41,19.50
2016,03,30,14,42,19.50
2016,03,30,14,43,19.40
2016,03,30,14,44,19.30
2016,03,30,14,45,19.30
2016,03,30,14,46,19.30
2016,03,30,14,47,19.30
2016,03,30,14,48,19.20
2016,03,30,14,49,19.20
2016,03,30,14,50,19.20
2016,03,30,14,51,19.30
2016,03,30,14,52,19.30
2016,03,30,14,53,19.30
2016,03,30,14,54,19.30
2016,03,30,14,55,19.30
2016,03,30,14,56,19.20
2016,03,30,14,57,19.10
2016,03,30,14,58,19.10
2016,03,30,14,59,19.10
2016,03,30,15,00,19.00
2016,03,30,15,01,19.00
2016,03,30,15,02,19.10
2016,03,30,15,03,19.20
2016,03,30,15,04,19.20
2016,03,30,15,05,19.20
2016,03,30,15,06,19.20
2016,03,30,15,07,19.10
2016,03,30,15,08,19.00
2016,03,30,15,09,18.90
2016,03,30,15,10,18.90
2016,03,30,15,11,18.90
2016,03,30,15,12,18.90
2016,03,30,15,13,18.90
2016,03,30,15,14,18.90
2016,03,30,15,15,19.00
2016,03,30,15,16,19.00
2016,03,30,15,17,19.00
2016,03,30,15,18,19.00
2016,03,30,15,19,19.00
2016,03,30,15,20,19.00
2016,03,30,15,21,18.90
2016,03,30,15,22,18.90
2016,03,30,15,23,18.90
2016,03,30,15,24,18.80
2016,03,30,15,25,18.80
2016,03,30,15,26,18.80
2016,03,30,15,27,18.90
2016,03,30,15,28,19.00
2016,03,30,15,29,19.10
2016,03,30,15,30,19.20
2016,03,30,15,31,19.20
2016,03,30,15,32,19.20
2016,03,30,15,33,19.30
2016,03,30,15,34,19.30
2016,03,30,15,35,19.40
2016,03,30,15,36,19.40
2016,03,30,15,37,19.40
2016,03,30,15,38,19.40
2016,03,30,15,39,19.40
2016,03,30,15,40,19.30
2016,03,30,15,41,19.30
2016,03,30,15,42,19.40
2016,03,30,15,43,19.40
2016,03,30,15,44,19.40
2016,03,30,15,45,19.40
2016,03,30,15,46,19.40
2016,03,30,15,47,19.50
2016,03,30,15,48,19.50
2016,03,30,15,49,19.60
2016,03,30,15,50,19.60
2016,03,30,15,51,19.60
2016,03,30,15,52,19.50
2016,03,30,15,53,19.50
2016,03,30,15,54,19.50
2016,03,30,15,55,19.60
2016,03,30,15,56,19.60
2016,03,30,15,57,19.70
2016,03,30,15,58,19.70
2016,03,30,15,59,19.70
2016,03,30,16,00,19.70
2016,03,30,16,01,19.70
2016,03,30,16,02,19.70
2016,03,30,16,03,19.70
2016,03,30,16,04,19.70
2016,03,30,16,05,19.70
2016,03,30,16,06,19.70
2016,03,30,16,07,19.60
2016,03,30,16,08,19.50
2016,03,30,16,09,19.50
2016,03,30,16,10,19.50
2016,03,30,16,11,19.50
2016,03,30,16,12,19.50
2016,03,30,16,13,19.60
2016,03,30,16,14,19.60
2016,03,30,16,15,19.70
2016,03,30,16,16,19.80
2016,03,30,16,17,19.80
2016,03,30,16,18,19.80
2016,03,30,16,19,19.80
2016,03,30,16,20,19.80
2016,03,30,16,21,19.70
2016,03,30,16,22,19.70
2016,03,30,16,23,19.60
2016,03,30,16,24,19.50
2016,03,30,16,25,19.50
2016,03,30,16,26,19.50
2016,03,30,16,27,19.60
2016,03,30,16,28,19.60
2016,03,30,16,29,19.60
2016,03,30,16,30,19.70
2016,03,30,16,31,19.80
2016,03,30,16,32,19.80
2016,03,30,16,33,19.80
2016,03,30,16,34,19.70
2016,03,30,16,35,19.70
2016,03,30,16,36,19.70
2016,03,30,16,37,19.70
2016,03,30,16,38,19.70
2016,03,30,16,39,19.70
2016,03,30,16,40,19.70
2016,03,30,16,41,19.70
2016,03,30,16,42,19.70
2016,03,30,16,43,19.70
2016,03,30,16,44,19.70
2016,03,30,16,45,19.80
2016,03,30,16,46,19.80
2016,03,30,16,47,19.80
2016,03,30,16,48,19.80
2016,03,30,16,49,19.80
2016,03,30,16,50,19.80
2016,03,30,16,51,19.80
2016,03,30,16,52,19.70
2016,03,30,16,53,19.60
2016,03,30,16,54,19.60
2016,03,30,16,55,19.60
2016,03,30,16,56,19.60
2016,03,30,16,57,19.60
2016,03,30,16,58,19.70
2016,03,30,16,59,19.70
2016,03,30,17,00,19.80
2016,03,30,17,01,19.80
2016,03,30,17,02,19.80
2016,03,30,17,03,19.80
2016,03,30,17,04,19.80
2016,03,30,17,05,19.80
2016,03,30,17,06,19.80
2016,03,30,17,07,19.70
2016,03,30,17,08,19.70
2016,03,30,17,09,19.60
2016,03,30,17,10,19.60
2016,03,30,17,11,19.60
2016,03,30,17,12,19.60
2016,03,30,17,13,19.70
2016,03,30,17,14,19.70
2016,03,30,17,15,19.70
2016,03,30,17,16,19.70
2016,03,30,17,17,19.70
2016,03,30,17,18,19.60
2016,03,30,17,19,19.60
2016,03,30,17,20,19.50
2016,03,30,17,21,19.50
2016,03,30,17,22,19.50
2016,03,30,17,23,19.50
2016,03,30,17,24,19.50
2016,03,30,17,25,19.60
2016,03,30,17,26,19.60
2016,03,30,17,27,19.60
2016,03,30,17,28,19.60
2016,03,30,17,29,19.50
2016,03,30,17,30,19.60
2016,03,30,17,31,19.60
2016,03,30,17,32,19.60
2016,03,30,17,33,19.60
2016,03,30,17,34,19.70
2016,03,30,17,35,19.80
2016,03,30,17,36,19.80
2016,03,30,17,37,19.80
2016,03,30,17,38,19.80
2016,03,30,17,39,19.80
2016,03,30,17,40,19.70
2016,03,30,17,41,19.60
2016,03,30,17,42,19.60
2016,03,30,17,43,19.50
2016,03,30,17,44,19.50
2016,03,30,17,45,19.50
2016,03,30,17,46,19.50
2016,03,30,17,47,19.50
2016,03,30,17,48,19.50
2016,03,30,17,49,19.50
2016,03,30,17,50,19.50
2016,03,30,17,51,19.40
2016,03,30,17,52,19.30
2016,03,30,17,53,19.30
2016,03,30,17,54,19.20
2016,03,30,17,55,19.20
2016,03,30,17,56,19.20
2016,03,30,17,57,19.10
2016,03,30,17,58,19.10
2016,03,30,17,59,19.10
2016,03,30,18,00,19.00
2016,03,30,18,01,19.00
2016,03,30,18,02,18.90
2016,03,30,18,03,18.90
2016,03,30,18,04,18.90
2016,03,30,18,05,18.90
2016,03,30,18,06,18.90
2016,03,30,18,07,18.80
2016,03,30,18,08,18.80
2016,03,30,18,09,18.80
2016,03,30,18,10,18.70
2016,03,30,18,11,18.70
2016,03,30,18,12,18.70
2016,03,30,18,13,18.60
2016,03,30,18,14,18.60
2016,03,30,18,15,18.50
2016,03,30,18,16,18.50
2016,03,30,18,17,18.40
2016,03,30,18,18,18.40
2016,03,30,18,19,18.30
2016,03,30,18,20,18.30
2016,03,30,18,21,18.20
2016,03,30,18,22,18.20
2016,03,30,18,23,18.20
2016,03,30,18,24,18.20
2016,03,30,18,25,18.10
2016,03,30,18,26,18.10
2016,03,30,18,27,18.10
2016,03,30,18,28,18.10
2016,03,30,18,29,18.10
2016,03,30,18,30,18.10
2016,03,30,18,31,18.00
2016,03,30,18,32,18.00
2016,03,30,18,33,17.90
2016,03,30,18,34,17.90
2016,03,30,18,35,17.80
2016,03,30,18,36,17.80
2016,03,30,18,37,17.80
2016,03,30,18,38,17.80
2016,03,30,18,39,17.80
2016,03,30,18,40,17.70
2016,03,30,18,41,17.70
2016,03,30,18,42,17.60
2016,03,30,18,43,17.60
2016,03,30,18,44,17.50
2016,03,30,18,45,17.50
2016,03,30,18,46,17.40
2016,03,30,18,47,17.40
2016,03,30,18,48,17.40
2016,03,30,18,49,17.30
2016,03,30,18,50,17.30
2016,03,30,18,51,17.30
2016,03,30,18,52,17.20
2016,03,30,18,53,17.10
2016,03,30,18,54,17.10
2016,03,30,18,55,17.00
2016,03,30,18,56,16.90
2016,03,30,18,57,16.90
2016,03,30,18,58,16.80
2016,03,30,18,59,16.80
2016,03,30,19,00,16.70
2016,03,30,19,01,16.70
2016,03,30,19,02,16.60
2016,03,30,19,03,16.60
2016,03,30,19,04,16.50
2016,03,30,19,05,16.40
2016,03,30,19,06,16.40
2016,03,30,19,07,16.30
2016,03,30,19,08,16.20
2016,03,30,19,09,16.20
2016,03,30,19,10,16.10
2016,03,30,19,11,16.10
2016,03,30,19,12,16.10
2016,03,30,19,13,16.00
2016,03,30,19,14,16.00
2016,03,30,19,15,15.90
2016,03,30,19,16,15.90
2016,03,30,19,17,15.80
2016,03,30,19,18,15.80
2016,03,30,19,19,15.70
2016,03,30,19,20,15.70
2016,03,30,19,21,15.60
2016,03,30,19,22,15.50
2016,03,30,19,23,15.40
2016,03,30,19,24,15.30
2016,03,30,19,25,15.30
2016,03,30,19,26,15.20
2016,03,30,19,27,15.10
2016,03,30,19,28,15.10
2016,03,30,19,29,15.00
2016,03,30,19,30,14.90
2016,03,30,19,31,14.90
2016,03,30,19,32,14.80
2016,03,30,19,33,14.80
2016,03,30,19,34,14.70
2016,03,30,19,35,14.70
2016,03,30,19,36,14.60
2016,03,30,19,37,14.60
2016,03,30,19,38,14.50
2016,03,30,19,39,14.50
2016,03,30,19,40,14.40
2016,03,30,19,41,14.40
2016,03,30,19,42,14.40
2016,03,30,19,43,14.40
2016,03,30,19,44,14.30
2016,03,30,19,45,14.30
2016,03,30,19,46,14.30
2016,03,30,19,47,14.30
2016,03,30,19,48,14.30
2016,03,30,19,49,14.30
2016,03,30,19,50,14.30
2016,03,30,19,51,14.20
2016,03,30,19,52,14.20
2016,03,30,19,53,14.20
2016,03,30,19,54,14.10
2016,03,30,19,55,14.10
2016,03,30,19,56,14.10
2016,03,30,19,57,14.10
2016,03,30,19,58,14.00
2016,03,30,19,59,14.00
2016,03,30,20,00,13.90
2016,03,30,20,01,13.80
2016,03,30,20,02,13.80
2016,03,30,20,03,13.80
2016,03,30,20,04,13.70
2016,03,30,20,05,13.70
2016,03,30,20,06,13.60
2016,03,30,20,07,13.60
2016,03,30,20,08,13.60
2016,03,30,20,09,13.50
2016,03,30,20,10,13.50
2016,03,30,20,11,13.40
2016,03,30,20,12,13.40
2016,03,30,20,13,13.30
2016,03,30,20,14,13.20
2016,03,30,20,15,13.20
2016,03,30,20,16,13.10
2016,03,30,20,17,13.10
2016,03,30,20,18,13.00
2016,03,30,20,19,13.00
2016,03,30,20,20,12.90
2016,03,30,20,21,12.90
2016,03,30,20,22,12.80
2016,03,30,20,23,12.80
2016,03,30,20,24,12.70
2016,03,30,20,25,12.70
2016,03,30,20,26,12.70
2016,03,30,20,27,12.70
2016,03,30,20,28,12.60
2016,03,30,20,29,12.60
2016,03,30,20,30,12.60
2016,03,30,20,31,12.50
2016,03,30,20,32,12.50
2016,03,30,20,33,12.40
2016,03,30,20,34,12.40
2016,03,30,20,35,12.40
2016,03,30,20,36,12.30
2016,03,30,20,37,12.30
2016,03,30,20,38,12.30
2016,03,30,20,39,12.20
2016,03,30,20,40,12.20
2016,03,30,20,41,12.10
2016,03,30,20,42,12.10
2016,03,30,20,43,12.10
2016,03,30,20,44,12.00
2016,03,30,20,45,12.00
2016,03,30,20,46,11.90
2016,03,30,20,47,11.90
2016,03,30,20,48,11.80
2016,03,30,20,49,11.80
2016,03,30,20,50,11.80
2016,03,30,20,51,11.70
2016,03,30,20,52,11.70
2016,03,30,20,53,11.60
2016,03,30,20,54,11.60
2016,03,30,20,55,11.60
2016,03,30,20,56,11.50
2016,03,30,20,57,11.50
2016,03,30,20,58,11.50
2016,03,30,20,59,11.40
2016,03,30,21,00,11.40
2016,03,30,21,01,11.30
2016,03,30,21,02,11.30
2016,03,30,21,03,11.30
2016,03,30,21,04,11.30
2016,03,30,21,05,11.30
2016,03,30,21,06,11.20
2016,03,30,21,07,11.20
2016,03,30,21,08,11.20
2016,03,30,21,09,11.20
2016,03,30,21,10,11.10
2016,03,30,21,11,11.10
2016,03,30,21,12,11.10
2016,03,30,21,13,11.10
2016,03,30,21,14,11.00
2016,03,30,21,15,11.00
2016,03,30,21,16,11.00
2016,03,30,21,17,11.00
2016,03,30,21,18,11.00
2016,03,30,21,19,11.00
2016,03,30,21,20,10.90
2016,03,30,21,21,10.90
2016,03,30,21,22,11.00
2016,03,30,21,23,11.00
2016,03,30,21,24,11.00
2016,03,30,21,25,11.10
2016,03,30,21,26,11.10
2016,03,30,21,27,11.20
2016,03,30,21,28,11.20
2016,03,30,21,29,11.20
2016,03,30,21,30,11.20
2016,03,30,21,31,11.30
2016,03,30,21,32,11.30
2016,03,30,21,33,11.20
2016,03,30,21,34,11.20
2016,03,30,21,35,11.20
2016,03,30,21,36,11.20
2016,03,30,21,37,11.20
2016,03,30,21,38,11.20
2016,03,30,21,39,11.20
2016,03,30,21,40,11.20
2016,03,30,21,41,11.20
2016,03,30,21,42,11.20
2016,03,30,21,43,11.20
2016,03,30,21,44,11.20
2016,03,30,21,45,11.20
2016,03,30,21,46,11.10
2016,03,30,21,47,11.10
2016,03,30,21,48,11.10
2016,03,30,21,49,11.10
2016,03,30,21,50,11.10
2016,03,30,21,51,11.00
2016,03,30,21,52,11.00
2016,03,30,21,53,10.90
2016,03,30,21,54,10.90
2016,03,30,21,55,10.90
2016,03,30,21,56,10.90
2016,03,30,21,57,10.80
2016,03,30,21,58,10.80
2016,03,30,21,59,10.80
2016,03,30,22,00,10.80
2016,03,30,22,01,10.80
2016,03,30,22,02,10.80
2016,03,30,22,03,10.70
2016,03,30,22,04,10.70
2016,03,30,22,05,10.70
2016,03,30,22,06,10.70
2016,03,30,22,07,10.70
2016,03,30,22,08,10.60
2016,03,30,22,09,10.60
2016,03,30,22,10,10.60
2016,03,30,22,11,10.60
2016,03,30,22,12,10.60
2016,03,30,22,13,10.60
2016,03,30,22,14,10.60
2016,03,30,22,15,10.60
2016,03,30,22,16,10.50
2016,03,30,22,17,10.50
2016,03,30,22,18,10.50
2016,03,30,22,19,10.50
2016,03,30,22,20,10.50
2016,03,30,22,21,10.50
2016,03,30,22,22,10.50
2016,03,30,22,23,10.50
2016,03,30,22,24,10.50
2016,03,30,22,25,10.50
2016,03,30,22,26,10.50
2016,03,30,22,27,10.50
2016,03,30,22,28,10.50
2016,03,30,22,29,10.50
2016,03,30,22,30,10.50
2016,03,30,22,31,10.50
2016,03,30,22,32,10.50
